User: anonymous   Login
Location: Castle Hill Houses
(40.8186°N, 73.8497°W)
Time: 01:51:19
(UTC+00:00)
Language:

STARLINK-1027 - Orbit

View from above orbital plane
View from above orbital plane
View from above satellite
View from above satellite

Ground track
Ground track

The orbit data is extracted from the following two-line orbital elements,

1 44732U 19074V   20091.91667824 -.00005567  00000-0 -43277-3 0  9997
2 44732  52.9990 221.8026 0001307  77.3099 321.7215 14.99079396 21789
Epoch (UTC): 31 March 2020 22:00:01
Eccentricity: 0.0001307
inclination: 52.9990°
perigee height: 569 km
apogee height: 570 km
right ascension of ascending node: 221.8026°
argument of perigee: 77.3099°
revolutions per day: 14.99079396
mean anomaly at epoch: 321.7215°
orbit number at epoch: 2178

The dashed part of the orbit path shows where the satellite is in the earth's shadow,  

DLR